| time (UTC) | temp F | wind direction | speed knots | gust knots | rain 1hr in | rain 24hr in | rain mn in | humidity % | barometer mb |
| 20260504231554 | 57 | 202 | 7.8 | 18.2 | 0.00 | 0.00 | 0.00 | 65 | 1007.8 |
| 20260504230048 | 57 | 182 | 7.0 | 14.8 | 0.00 | 0.00 | 0.00 | 62 | 1007.7 |
| 20260504224553 | 58 | 214 | 9.6 | 17.4 | 0.00 | 0.00 | 0.00 | 59 | 1007.8 |
| 20260504223047 | 59 | 229 | 7.8 | 19.1 | 0.00 | 0.00 | 0.00 | 57 | 1007.7 |
| 20260504221557 | 60 | 234 | 9.6 | 15.6 | 0.00 | 0.00 | 0.00 | 56 | 1007.5 |
| 20260504220048 | 61 | 223 | 8.7 | 18.2 | 0.00 | 0.00 | 0.00 | 54 | 1007.6 |
| 20260504214550 | 61 | 197 | 8.7 | 19.1 | 0.00 | 0.00 | 0.00 | 52 | 1007.6 |
| 20260504213051 | 61 | 211 | 12.2 | 21.7 | 0.00 | 0.00 | 0.00 | 51 | 1007.6 |
| 20260504211543 | 62 | 163 | 10.4 | 22.6 | 0.00 | 0.00 | 0.00 | 49 | 1007.3 |
| 20260504210053 | 64 | 193 | 7.8 | 20.0 | 0.00 | 0.00 | 0.00 | 46 | 1007.2 |
| 20260504204619 | 64 | 168 | 7.8 | 22.6 | 0.00 | 0.00 | 0.00 | 45 | 1007.3 |
| 20260504203040 | 64 | 182 | 10.4 | 19.1 | 0.00 | 0.00 | 0.00 | 44 | 1007.2 |
| 20260504201540 | 64 | 213 | 8.7 | 20.0 | 0.00 | 0.00 | 0.00 | 43 | 1007.3 |
| 20260504200041 | 64 | 203 | 9.6 | 18.2 | 0.00 | 0.00 | 0.00 | 43 | 1007.3 |
| 20260504194547 | 63 | 174 | 13.0 | 23.5 | 0.00 | 0.00 | 0.00 | 44 | 1007.6 |
| 20260504193036 | 64 | 212 | 9.6 | 23.5 | 0.00 | 0.00 | 0.00 | 42 | 1007.5 |
| 20260504191536 | 65 | 240 | 10.4 | 14.8 | 0.00 | 0.00 | 0.00 | 42 | 1007.3 |
| 20260504190040 | 64 | 164 | 7.0 | 19.1 | 0.00 | 0.00 | 0.00 | 43 | 1007.5 |
| 20260504184537 | 64 | 198 | 13.9 | 24.3 | 0.00 | 0.00 | 0.00 | 39 | 1007.8 |
| 20260504183034 | 65 | 202 | 8.7 | 17.4 | 0.00 | 0.00 | 0.00 | 36 | 1007.8 |
| 20260504181533 | 65 | 205 | 6.1 | 19.1 | 0.00 | 0.00 | 0.00 | 36 | 1007.8 |
| 20260504180032 | 65 | 145 | 12.2 | 21.7 | 0.00 | 0.00 | 0.00 | 35 | 1008.3 |
| 20260504174531 | 64 | 226 | 13.0 | 27.8 | 0.00 | 0.00 | 0.00 | 35 | 1009.2 |
| 20260504173030 | 64 | 227 | 10.4 | 22.6 | 0.00 | 0.00 | 0.00 | 34 | 1008.3 |
| 20260504171539 | 63 | 220 | 13.0 | 20.0 | 0.00 | 0.00 | 0.00 | 34 | 1008.4 |
| 20260504081527 | 43 | 279 | 0.0 | 0.0 | 0.00 | 0.00 | 0.00 | 70 | 1009.7 |
| 20260504050001 | 41 | 279 | 0.0 | 0.0 | 0.00 | 0.00 | 0.00 | 58 | 1009.4 |
| 20260504044500 | 41 | 279 | 0.0 | 0.0 | 0.00 | 0.00 | 0.00 | 58 | 1009.4 |
| 20260504043100 | 40 | 279 | 0.0 | 0.0 | 0.00 | 0.00 | 0.00 | 58 | 1009.4 |
| 20260504041558 | 40 | 279 | 0.0 | 0.0 | 0.00 | 0.00 | 0.00 | 59 | 1009.4 |
| 20260504040056 | 40 | 279 | 0.0 | 0.0 | 0.00 | 0.00 | 0.00 | 59 | 1009.3 |
| 20260504034613 | 40 | 279 | 0.0 | 0.0 | 0.00 | 0.00 | 0.00 | 59 | 1009.3 |
| 20260504033055 | 41 | 279 | 0.0 | 0.0 | 0.00 | 0.00 | 0.00 | 58 | 1009.3 |
| 20260504031555 | 41 | 279 | 0.0 | 0.0 | 0.00 | 0.00 | 0.00 | 57 | 1009.1 |
| 20260504030054 | 41 | 279 | 0.0 | 0.0 | 0.00 | 0.00 | 0.00 | 56 | 1009.1 |
| 20260504024554 | 41 | 279 | 0.0 | 0.0 | 0.00 | 0.00 | 0.00 | 55 | 1009.1 |
| 20260504023054 | 42 | 279 | 0.0 | 0.0 | 0.00 | 0.00 | 0.00 | 54 | 1009.0 |
| 20260504021554 | 43 | 279 | 0.0 | 0.0 | 0.00 | 0.00 | 0.00 | 53 | 1008.9 |
| 20260504020053 | 43 | 279 | 0.0 | 0.0 | 0.00 | 0.00 | 0.00 | 52 | 1008.9 |
| 20260504014603 | 44 | 279 | 0.0 | 0.0 | 0.00 | 0.00 | 0.00 | 51 | 1008.8 |
| 20260504013053 | 44 | 279 | 0.0 | 0.0 | 0.00 | 0.00 | 0.00 | 50 | 1008.8 |
| 20260504011557 | 44 | 279 | 0.0 | 0.0 | 0.00 | 0.00 | 0.00 | 49 | 1008.4 |
| 20260504010056 | 45 | 279 | 0.0 | 0.0 | 0.00 | 0.00 | 0.00 | 47 | 1008.3 |
| 20260504004549 | 46 | 279 | 0.0 | 0.0 | 0.00 | 0.00 | 0.00 | 46 | 1007.9 |
| 20260504003052 | 48 | 279 | 0.0 | 0.0 | 0.00 | 0.00 | 0.00 | 44 | 1007.8 |
| 20260504001548 | 49 | 279 | 0.0 | 0.0 | 0.00 | 0.00 | 0.00 | 40 | 1007.6 |
| 20260504000049 | 51 | 279 | 0.0 | 0.0 | 0.00 | 0.00 | 0.00 | 37 | 1007.4 |
| 20260503234550 | 52 | 279 | 0.0 | 1.7 | 0.00 | 0.00 | 0.00 | 36 | 1007.3 |
| 20260503233046 | 53 | 279 | 0.0 | 4.3 | 0.00 | 0.00 | 0.00 | 35 | 1007.3 |